2023-116B (57520 NORAD) Tracking and Keplerian Element Data

This shows tracking and keplerian element data for the satellite.

Feedback or suggestion? Click here.




ElementValue
Catalog57520
Name2023-116B
Epoch Orbit278
Epoch Day239.12428527
Epoch Year2023
RAAN245.2624
Inclination97.3807
Eccentricity0.0021856
Argument of Perigee236.4372
Mean Anonmoly169.9704
Mean Motion15.31914829
Decay Rate0.00125708
L11 57520U 23116B 23239.12428527 .00125708 00000+0 39918-2 0 9996
L22 57520 97.3807 245.2624 0021856 236.4372 169.9704 15.31914829 2785



Live tracking and technical data element details for 2023-116B (NORAD 57520). 2023-116B can be tracked NOW for your location showing map with azimuth and elevation plus other details from your city location.







IsCatalogInMostPopularTable: catalog: 57520, numindb: 4
Update: records affected: 1



GetName: 57520 2023-116B

Hit Count: updated at: Tue, 26 Sep 2023 11:56:53 GMT